Location: Unspecified
(0.0000°N, 0.0000°E)
Time: 06:25:08
(UTC+02:00)

Cosmos 1733 Rocket - Visible Passes

Search period start: 01 May 2017 00:00
Search period end: 11 May 2017 00:00
Orbit: 604 x 628 km, 82.5° (Epoch: 29 April)

Date Brightness Start Highest point End Pass type
(mag) Time Alt. Az. Time Alt. Az. Time Alt. Az.
01 May 5.3 21:07:58 10° NE 21:08:08 11° NE 21:08:08 11° NE visible
02 May 4.4 21:23:12 10° NNE 21:25:26 25° NE 21:25:26 25° NE visible
03 May 3.4 21:39:16 10° N 21:42:48 57° N 21:42:48 57° N visible
04 May 4.2 21:55:57 10° NNW 22:00:04 40° W 22:00:15 40° W visible
05 May 4.6 20:36:08 10° NE 20:38:57 17° E 20:40:35 14° ESE visible
05 May 5.6 22:13:25 10° NW 22:16:28 18° W 22:17:46 16° WSW visible
06 May 3.6 20:51:18 10° NNE 20:55:21 36° E 20:58:10 17° SE visible
07 May 2.9 21:07:19 10° N 21:11:44 84° E 21:15:48 12° S visible
08 May 4.3 21:23:58 10° NNW 21:28:07 42° W 21:32:16 10° SSW visible
09 May 5.7 21:41:22 10° NW 21:44:30 19° W 21:47:38 10° SW visible
10 May 3.7 20:19:24 10° NNE 20:23:23 34° E 20:27:22 10° SSE visible
